Location: Avully
(45.9633°N, 6.0228°E)
Time: 21:02:30
(UTC+00:00)

Cosmos 2360 Rocket - Pass Details

Date: 09 August 2024
Orbit: 834 x 843 km, 71.0° (Epoch: 10 September)

Event Time Altitude Azimuth Distance (km) Brightness Sun altitude
Exits shadow 03:08:24 - 280° (W) 3,030 4.7 -12.7°
Reaches altitude 10° 03:11:18 10° 303° (WNW) 2,467 4.4 -12.3°
Maximum altitude 03:13:23 12° 325° (NW) 2,333 4.5 -12.0°
Drops below altitude 10° 03:15:27 10° 347° (NNW) 2,469 5.0 -11.7°
Sets 03:19:47 0° 18° (NNE) 3,406 6.3 -11.1°
